sat.trackr.live / text

‹ back to catalog

STARLINK-37010

NORAD 68289 · 2026-055AD

PAYLOAD ACTIVE UNKNOWN

§ Identity

Operator
Country
US
Launch date
2026-03-19
Launch site
AFETR
Launch vehicle
Mass (kg)
RCS (m²)

Purposes: comms

External: N2YO · Heavens-Above · Gunter

§ Orbital elements

Epoch: 2026-05-24T15:43:01.735680Z

Period
93.85 min
Inclination
53.1589°
Eccentricity
0.0000960
Mean motion
15.34393861 rev/d
Perigee alt
462.1 km
Apogee alt
463.4 km
Semi-major
6,840.9 km
B*
5.1259e-4
RAAN
325.5371°
Arg perigee
86.5427°
Mean anomaly
273.5686°
Rev number
1,157

§ Raw data

STARLINK-370101 68289U 26055AD  26144.65488120  .00016978  00000+0  51259-3 0  99972 68289  53.1589 325.5371 0000960  86.5427 273.5686 15.34393861 11573

JSON: /api/v1/satellites/68289 · /tle

For live sub-satellite position, see the globe view (requires WebGL).

§ Visibility from observer

Set your observer location to see the next 7 days of passes ≥ 10°. The values pass through the URL so the page stays shareable.

No JS? Fill the form by hand. The geolocation button needs JavaScript.